Weather History for LKCV - December, 2013

Change the Weather History Date:

Friday, December 13, 2013

  Actual Average Record
Temperature  
Mean Temperature 32 °F -  
Max Temperature 33 °F - - ()
Min Temperature 30 °F - - ()
Degree Days  
Heating Degree Days 34    
Moisture  
Dew Point 31 °F    
Average Humidity 98    
Maximum Humidity 100    
Minimum Humidity 93    
Precipitation  
Precipitation 0.00 in - - ()
Sea Level Pressure  
Sea Level Pressure 30.32 in    
Wind  
Wind Speed 2 mph ()    
Max Wind Speed 5 mph    
Max Gust Speed -    
Visibility 0.6 miles    
Events Fog    
T = Trace of Precipitation, MM = Missing Value Source: Averaged Metar Reports

Daily Weather History Graph

Daily Weather History Graph

Search for Another Location

Airport or City:

Trip Planner

Search our weather history database for the weather conditions in past years. The results will help you decide how hot, cold, wet, or windy it might be!

Date:

Astronomy

Dec. 13, 2013 Rise Set
Actual Time 7:48 AM CET 3:56 PM CET
Civil Twilight 7:10 AM CET 4:35 PM CET
Nautical Twilight 6:28 AM CET 5:16 PM CET
Astronomical Twilight 5:49 AM CET 5:55 PM CET
Moon 1:44 PM CET (12/13) 3:36 AM CET (12/13)
Length of Visible Light 9h 24m
Length of Day
8h 08m
Waxing Gibbous, 86% of the Moon is Illuminated
Dec 13
Waxing Gibbous
Dec 17
Full
Dec 25
Last Quarter
Jan 1
New
Jan 8
First Quarter

Hourly Weather History & Observations

Time (CET) Temp. Windchill Dew Point Humidity Pressure Visibility Wind Dir Wind Speed Gust Speed Precip Events Conditions
12:00 AM 33.8 °F 30.8 °F 32.0 °F 93% 30.39 in 0.7 mi South 3.5 mph - N/A   Overcast
1:00 AM 32.0 °F - 32.0 °F 100% 30.39 in 0.7 mi Variable 2.3 mph - N/A   Overcast
2:00 AM 32.0 °F - 32.0 °F 100% 30.36 in 0.6 mi Variable 2.3 mph - N/A   Light Drizzle
3:00 AM 32.0 °F - 32.0 °F 100% 30.36 in 0.6 mi Variable 2.3 mph - N/A   Overcast
4:00 AM 32.0 °F 28.7 °F 32.0 °F 100% 30.36 in 0.6 mi West 3.5 mph - N/A   Overcast
5:00 AM 32.0 °F - 32.0 °F 100% 30.33 in 0.6 mi Variable 2.3 mph - N/A   Overcast
6:00 AM 32.0 °F - 30.2 °F 93% 30.33 in 0.6 mi Variable 2.3 mph - N/A   Light Drizzle
6:42 AM 32.0 °F - 30.2 °F 93% 30.33 in 0.6 mi ESE 2.3 mph - N/A   Drizzle
7:00 AM 32.0 °F - 30.2 °F 93% 30.33 in 0.6 mi East 2.3 mph - N/A   Drizzle
7:38 AM 32.0 °F - 30.2 °F 93% 30.33 in 0.5 mi Variable 2.3 mph - N/A Fog Drizzle
8:00 AM 30.2 °F 26.7 °F 30.2 °F 100% 30.33 in 0.5 mi SE 3.5 mph - N/A Fog Light Freezing Drizzle
9:00 AM 30.2 °F 25.4 °F 30.2 °F 100% 30.33 in 0.5 mi SW 4.6 mph - N/A Fog Light Freezing Rain
9:19 AM 30.2 °F - 30.2 °F 100% 30.33 in 1.2 mi Variable 2.3 mph - N/A   Light Freezing Rain
10:00 AM 30.2 °F - 30.2 °F 100% 30.33 in 1.2 mi Calm Calm - N/A   Light Freezing Rain
11:00 AM 30.2 °F - 30.2 °F 100% 30.33 in 1.2 mi Variable 1.2 mph - N/A   Overcast
12:00 PM 32.0 °F - 30.2 °F 93% 30.33 in 1.2 mi Calm Calm - N/A   Overcast
1:00 PM 32.0 °F - 32.0 °F 100% 30.30 in 1.2 mi Calm Calm - N/A   Overcast
2:00 PM 32.0 °F - 32.0 °F 100% 30.30 in 1.2 mi Variable 1.2 mph - N/A   Overcast
2:38 PM 32.0 °F - 32.0 °F 100% 30.30 in 0.4 mi Calm Calm - N/A Fog Light Freezing Fog
3:00 PM 32.0 °F - 32.0 °F 100% 30.30 in 0.4 mi Variable 1.2 mph - N/A Fog Light Freezing Fog
3:16 PM 32.0 °F - 32.0 °F 100% 30.30 in 0.2 mi Calm Calm - N/A Fog Light Freezing Fog
4:00 PM 32.0 °F - 32.0 °F 100% 30.30 in 0.2 mi Calm Calm - N/A Fog Light Freezing Fog
4:39 PM 32.0 °F - 32.0 °F 100% 30.30 in 0.4 mi Variable 1.2 mph - N/A Fog Light Freezing Fog
5:00 PM 32.0 °F - 32.0 °F 100% 30.27 in 0.4 mi Variable 2.3 mph - N/A Fog Light Freezing Fog
6:00 PM 32.0 °F 28.7 °F 30.2 °F 93% 30.27 in 0.4 mi SSE 3.5 mph - N/A Fog Light Freezing Fog
7:00 PM 32.0 °F - 30.2 °F 93% 30.27 in 0.4 mi Calm Calm - N/A Fog Light Freezing Fog
8:00 PM 32.0 °F - 30.2 °F 93% 30.27 in 0.4 mi Variable 2.3 mph - N/A Fog Light Freezing Fog
8:54 PM 30.2 °F - 30.2 °F 100% 30.30 in 0.6 mi Calm Calm - N/A Fog Light Freezing Fog
9:00 PM 32.0 °F - 30.2 °F 93% 30.30 in 0.6 mi Variable 1.2 mph - N/A   Overcast
10:00 PM 30.2 °F 26.7 °F 30.2 °F 100% 30.30 in 0.6 mi South 3.5 mph - N/A   Overcast
11:00 PM 32.0 °F - 30.2 °F 93% 30.30 in 0.6 mi Variable 2.3 mph - N/A   Overcast